| time (UTC) | temp F | wind direction | speed knots | gust knots | rain 1hr in | rain 24hr in | rain mn in | humidity % | barometer mb |
| 20260505034930 | 63 | 19 | 3.5 | 3.5 | 0.00 | 0.00 | 0.00 | 48 | 1012.9 |
| 20260505034426 | 62 | 206 | 0.0 | 0.0 | 0.00 | 0.00 | 0.00 | 50 | 1012.6 |
| 20260505033924 | 62 | 193 | 0.9 | 1.7 | 0.00 | 0.00 | 0.00 | 50 | 1012.9 |
| 20260505033420 | 61 | 245 | 0.0 | 0.0 | 0.00 | 0.00 | 0.00 | 52 | 1012.7 |
| 20260505032919 | 61 | 211 | 0.0 | 0.9 | 0.00 | 0.00 | 0.00 | 53 | 1012.7 |
| 20260505032415 | 61 | 251 | 0.0 | 0.0 | 0.00 | 0.00 | 0.00 | 54 | 1012.6 |
| 20260505031912 | 60 | 251 | 0.0 | 0.0 | 0.00 | 0.00 | 0.00 | 56 | 1012.8 |
| 20260505031409 | 61 | 251 | 0.0 | 0.0 | 0.00 | 0.00 | 0.00 | 55 | 1012.8 |
| 20260505030906 | 61 | 250 | 0.0 | 0.0 | 0.00 | 0.00 | 0.00 | 55 | 1012.8 |
| 20260505030402 | 61 | 251 | 0.0 | 0.0 | 0.00 | 0.00 | 0.00 | 55 | 1012.8 |
| 20260505025857 | 62 | 228 | 0.0 | 0.9 | 0.00 | 0.00 | 0.00 | 55 | 1013.0 |
| 20260505025355 | 62 | 314 | 0.0 | 0.9 | 0.00 | 0.00 | 0.00 | 55 | 1012.7 |
| 20260505024854 | 61 | 299 | 0.0 | 0.0 | 0.00 | 0.00 | 0.00 | 55 | 1012.8 |
| 20260505024351 | 61 | 299 | 0.0 | 0.9 | 0.00 | 0.00 | 0.00 | 57 | 1013.0 |
| 20260505023848 | 60 | 261 | 0.0 | 0.0 | 0.00 | 0.00 | 0.00 | 62 | 1012.8 |
| 20260505023345 | 60 | 262 | 0.0 | 0.0 | 0.00 | 0.00 | 0.00 | 62 | 1012.9 |
| 20260505022842 | 60 | 261 | 0.0 | 0.0 | 0.00 | 0.00 | 0.00 | 62 | 1012.7 |
| 20260505022339 | 60 | 261 | 0.0 | 0.0 | 0.00 | 0.00 | 0.00 | 62 | 1012.8 |
| 20260505021836 | 61 | 261 | 0.0 | 0.0 | 0.00 | 0.00 | 0.00 | 61 | 1012.7 |
| 20260505021333 | 62 | 261 | 0.0 | 0.0 | 0.00 | 0.00 | 0.00 | 59 | 1012.8 |
| 20260505020828 | 61 | 262 | 0.0 | 0.0 | 0.00 | 0.00 | 0.00 | 59 | 1012.7 |
| 20260505020324 | 62 | 261 | 0.0 | 0.9 | 0.00 | 0.00 | 0.00 | 58 | 1012.7 |
| 20260505015821 | 62 | 276 | 0.0 | 0.0 | 0.00 | 0.00 | 0.00 | 57 | 1012.6 |
| 20260505015318 | 63 | 235 | 0.0 | 0.9 | 0.00 | 0.00 | 0.00 | 58 | 1012.9 |
| 20260505014816 | 64 | 312 | 0.0 | 0.9 | 0.00 | 0.00 | 0.00 | 55 | 1012.6 |
| 20260505014312 | 64 | 153 | 0.9 | 0.9 | 0.00 | 0.00 | 0.00 | 51 | 1012.7 |
| 20260505013809 | 63 | 157 | 0.9 | 0.9 | 0.00 | 0.00 | 0.00 | 53 | 1012.5 |
| 20260505013306 | 62 | 157 | 0.0 | 0.0 | 0.00 | 0.00 | 0.00 | 57 | 1012.4 |
| 20260505012805 | 63 | 157 | 0.0 | 0.0 | 0.00 | 0.00 | 0.00 | 58 | 1012.4 |
| 20260505012304 | 63 | 157 | 0.0 | 0.0 | 0.00 | 0.00 | 0.00 | 57 | 1012.3 |
| 20260505011757 | 64 | 157 | 0.0 | 0.0 | 0.00 | 0.00 | 0.00 | 55 | 1012.4 |
| 20260505011255 | 64 | 157 | 0.0 | 0.0 | 0.00 | 0.00 | 0.00 | 56 | 1012.2 |
| 20260505010750 | 64 | 158 | 0.0 | 0.0 | 0.00 | 0.00 | 0.00 | 57 | 1012.2 |
| 20260505010247 | 64 | 158 | 0.0 | 0.0 | 0.00 | 0.00 | 0.00 | 56 | 1012.3 |
| 20260505005743 | 64 | 158 | 0.0 | 0.0 | 0.00 | 0.00 | 0.00 | 57 | 1012.2 |
| 20260505005240 | 65 | 158 | 0.0 | 0.0 | 0.00 | 0.00 | 0.00 | 55 | 1012.1 |
| 20260505004737 | 65 | 158 | 0.0 | 0.0 | 0.00 | 0.00 | 0.00 | 55 | 1011.9 |
| 20260505004233 | 65 | 158 | 0.0 | 0.0 | 0.00 | 0.00 | 0.00 | 54 | 1012.1 |
| 20260505003731 | 66 | 158 | 0.0 | 0.0 | 0.00 | 0.00 | 0.00 | 52 | 1012.1 |
| 20260505003229 | 66 | 158 | 0.0 | 0.0 | 0.00 | 0.00 | 0.00 | 53 | 1012.0 |
| 20260505002725 | 66 | 158 | 0.0 | 0.0 | 0.00 | 0.00 | 0.00 | 48 | 1011.9 |
| 20260505002222 | 67 | 158 | 0.0 | 0.0 | 0.00 | 0.00 | 0.00 | 50 | 1012.0 |
| 20260505001720 | 68 | 158 | 0.0 | 0.0 | 0.00 | 0.00 | 0.00 | 50 | 1011.9 |
| 20260505001217 | 68 | 158 | 0.0 | 0.0 | 0.00 | 0.00 | 0.00 | 49 | 1011.9 |
| 20260505000714 | 69 | 158 | 0.0 | 0.0 | 0.00 | 0.00 | 0.00 | 47 | 1011.9 |
| 20260505000212 | 70 | 158 | 0.0 | 0.0 | 0.00 | 0.00 | 0.00 | 46 | 1011.8 |
| 20260504235708 | 70 | 158 | 0.0 | 0.0 | 0.00 | 0.00 | 0.00 | 45 | 1011.8 |
| 20260504235204 | 71 | 158 | 0.0 | 0.0 | 0.00 | 0.00 | 0.00 | 44 | 1011.8 |
| 20260504234702 | 71 | 158 | 0.0 | 0.0 | 0.00 | 0.00 | 0.00 | 43 | 1011.7 |
| 20260504234159 | 72 | 158 | 0.0 | 0.0 | 0.00 | 0.00 | 0.00 | 43 | 1011.7 |
| 20260504233655 | 73 | 158 | 0.0 | 0.0 | 0.00 | 0.00 | 0.00 | 41 | 1011.5 |
| 20260504233151 | 74 | 157 | 0.0 | 0.9 | 0.00 | 0.00 | 0.00 | 40 | 1011.3 |
| 20260504232648 | 74 | 159 | 0.0 | 0.9 | 0.00 | 0.00 | 0.00 | 39 | 1011.6 |
| 20260504232145 | 75 | 153 | 0.0 | 0.9 | 0.00 | 0.00 | 0.00 | 37 | 1011.7 |
| 20260504231642 | 76 | 1 | 1.7 | 2.6 | 0.00 | 0.00 | 0.00 | 35 | 1011.3 |
| 20260504231138 | 76 | 40 | 1.7 | 3.5 | 0.00 | 0.00 | 0.00 | 34 | 1011.4 |
| 20260504230635 | 77 | 81 | 1.7 | 3.5 | 0.00 | 0.00 | 0.00 | 34 | 1011.4 |
| 20260504230133 | 77 | 78 | 1.7 | 2.6 | 0.00 | 0.00 | 0.00 | 34 | 1011.5 |
| 20260504225632 | 77 | 59 | 0.9 | 3.5 | 0.00 | 0.00 | 0.00 | 33 | 1011.5 |
| 20260504225127 | 78 | 128 | 3.5 | 7.0 | 0.00 | 0.00 | 0.00 | 33 | 1011.5 |
| 20260504224624 | 78 | 157 | 3.5 | 6.1 | 0.00 | 0.00 | 0.00 | 33 | 1011.6 |
| 20260504224121 | 78 | 32 | 3.5 | 3.5 | 0.00 | 0.00 | 0.00 | 34 | 1011.7 |
| 20260504223618 | 78 | 69 | 0.9 | 2.6 | 0.00 | 0.00 | 0.00 | 33 | 1011.6 |
| 20260504223114 | 77 | 113 | 0.9 | 1.7 | 0.00 | 0.00 | 0.00 | 34 | 1011.7 |
| 20260504222611 | 77 | 68 | 1.7 | 2.6 | 0.00 | 0.00 | 0.00 | 35 | 1011.7 |
| 20260504222108 | 76 | 49 | 1.7 | 2.6 | 0.00 | 0.00 | 0.00 | 34 | 1011.6 |
| 20260504221605 | 76 | 74 | 1.7 | 2.6 | 0.00 | 0.00 | 0.00 | 33 | 1011.7 |
| 20260504221102 | 77 | 90 | 2.6 | 3.5 | 0.00 | 0.00 | 0.00 | 34 | 1011.7 |
| 20260504220558 | 77 | 62 | 2.6 | 3.5 | 0.00 | 0.00 | 0.00 | 33 | 1011.9 |
| 20260504220055 | 78 | 85 | 0.9 | 3.5 | 0.00 | 0.00 | 0.00 | 33 | 1011.7 |
| 20260504215552 | 79 | 42 | 2.6 | 7.0 | 0.00 | 0.00 | 0.00 | 32 | 1011.8 |
| 20260504215050 | 79 | 110 | 3.5 | 5.2 | 0.00 | 0.00 | 0.00 | 31 | 1012.0 |
| 20260504214545 | 79 | 32 | 0.9 | 2.6 | 0.00 | 0.00 | 0.00 | 32 | 1011.8 |
| 20260504214041 | 79 | 164 | 2.6 | 3.5 | 0.00 | 0.00 | 0.00 | 30 | 1011.7 |
| 20260504213538 | 79 | 122 | 1.7 | 5.2 | 0.00 | 0.00 | 0.00 | 32 | 1011.7 |
| 20260504213036 | 79 | 51 | 5.2 | 7.8 | 0.00 | 0.00 | 0.00 | 30 | 1011.5 |
| 20260504212531 | 79 | 66 | 2.6 | 5.2 | 0.00 | 0.00 | 0.00 | 31 | 1011.8 |
| 20260504212029 | 79 | 40 | 5.2 | 9.6 | 0.00 | 0.00 | 0.00 | 31 | 1011.8 |
| 20260504211526 | 79 | 47 | 2.6 | 3.5 | 0.00 | 0.00 | 0.00 | 31 | 1011.7 |
| 20260504211023 | 79 | 83 | 4.3 | 12.2 | 0.00 | 0.00 | 0.00 | 30 | 1011.7 |
| 20260504210520 | 80 | 281 | 0.9 | 1.7 | 0.00 | 0.00 | 0.00 | 32 | 1011.6 |
| 20260504210016 | 80 | 58 | 2.6 | 3.5 | 0.00 | 0.00 | 0.00 | 31 | 1011.6 |
| 20260504205514 | 79 | 25 | 0.9 | 2.6 | 0.00 | 0.00 | 0.00 | 33 | 1011.5 |
| 20260504205012 | 79 | 85 | 3.5 | 3.5 | 0.00 | 0.00 | 0.00 | 31 | 1011.6 |
| 20260504204510 | 78 | 50 | 4.3 | 6.1 | 0.00 | 0.00 | 0.00 | 29 | 1011.5 |
| 20260504204008 | 78 | 157 | 0.9 | 3.5 | 0.00 | 0.00 | 0.00 | 31 | 1011.7 |
| 20260504203506 | 77 | 96 | 1.7 | 5.2 | 0.00 | 0.00 | 0.00 | 31 | 1011.8 |
| 20260504203003 | 76 | 53 | 0.9 | 5.2 | 0.00 | 0.00 | 0.00 | 33 | 1011.9 |
| 20260504202459 | 76 | 92 | 4.3 | 8.7 | 0.00 | 0.00 | 0.00 | 32 | 1011.9 |
| 20260504201955 | 77 | 70 | 1.7 | 3.5 | 0.00 | 0.00 | 0.00 | 31 | 1011.8 |
| 20260504201453 | 78 | 47 | 3.5 | 5.2 | 0.00 | 0.00 | 0.00 | 29 | 1011.9 |
| 20260504200950 | 78 | 60 | 2.6 | 5.2 | 0.00 | 0.00 | 0.00 | 30 | 1011.9 |
| 20260504200447 | 79 | 52 | 3.5 | 6.1 | 0.00 | 0.00 | 0.00 | 29 | 1012.1 |
| 20260504195943 | 78 | 80 | 2.6 | 2.6 | 0.00 | 0.00 | 0.00 | 29 | 1011.9 |
| 20260504195439 | 79 | 157 | 1.7 | 3.5 | 0.00 | 0.00 | 0.00 | 29 | 1012.4 |
| 20260504194936 | 80 | 31 | 2.6 | 3.5 | 0.00 | 0.00 | 0.00 | 30 | 1012.1 |
| 20260504194432 | 79 | 69 | 1.7 | 7.0 | 0.00 | 0.00 | 0.00 | 31 | 1012.4 |
| 20260504193928 | 78 | 50 | 2.6 | 3.5 | 0.00 | 0.00 | 0.00 | 30 | 1012.6 |
| 20260504193426 | 77 | 41 | 3.5 | 8.7 | 0.00 | 0.00 | 0.00 | 30 | 1012.6 |
| 20260504192924 | 78 | 86 | 0.9 | 7.0 | 0.00 | 0.00 | 0.00 | 31 | 1012.5 |
| 20260504192421 | 77 | 19 | 3.5 | 3.5 | 0.00 | 0.00 | 0.00 | 29 | 1012.7 |
| 20260504191920 | 76 | 116 | 1.7 | 7.0 | 0.00 | 0.00 | 0.00 | 33 | 1012.9 |
| 20260504191418 | 76 | 118 | 6.1 | 8.7 | 0.00 | 0.00 | 0.00 | 31 | 1013.0 |
| 20260504190913 | 77 | 35 | 1.7 | 5.2 | 0.00 | 0.00 | 0.00 | 31 | 1013.0 |
| 20260504190409 | 75 | 109 | 0.9 | 2.6 | 0.00 | 0.00 | 0.00 | 31 | 1013.0 |
| 20260504185905 | 76 | 32 | 1.7 | 2.6 | 0.00 | 0.00 | 0.00 | 29 | 1013.0 |
| 20260504185403 | 77 | 54 | 4.3 | 7.0 | 0.00 | 0.00 | 0.00 | 29 | 1013.0 |
| 20260504184858 | 78 | 54 | 3.5 | 6.1 | 0.00 | 0.00 | 0.00 | 28 | 1013.1 |
| 20260504184354 | 78 | 0 | 2.6 | 6.1 | 0.00 | 0.00 | 0.00 | 29 | 1013.0 |
| 20260504183850 | 77 | 38 | 1.7 | 3.5 | 0.00 | 0.00 | 0.00 | 29 | 1013.3 |
| 20260504183348 | 77 | 39 | 3.5 | 7.0 | 0.00 | 0.00 | 0.00 | 28 | 1013.1 |
| 20260504182845 | 77 | 97 | 1.7 | 5.2 | 0.00 | 0.00 | 0.00 | 29 | 1013.1 |
| 20260504182343 | 76 | 79 | 3.5 | 6.1 | 0.00 | 0.00 | 0.00 | 28 | 1013.3 |
| 20260504181839 | 76 | 57 | 10.4 | 14.8 | 0.00 | 0.00 | 0.00 | 27 | 1013.5 |
| 20260504181337 | 76 | 105 | 5.2 | 7.8 | 0.00 | 0.00 | 0.00 | 26 | 1013.6 |
| 20260504180836 | 76 | 163 | 0.9 | 3.5 | 0.00 | 0.00 | 0.00 | 28 | 1013.7 |
| 20260504180334 | 77 | 0 | 0.9 | 3.5 | 0.00 | 0.00 | 0.00 | 30 | 1013.4 |
| 20260504175832 | 76 | 23 | 1.7 | 3.5 | 0.00 | 0.00 | 0.00 | 28 | 1013.5 |
| 20260504175328 | 75 | 17 | 3.5 | 7.0 | 0.00 | 0.00 | 0.00 | 27 | 1013.6 |
| 20260504174827 | 75 | 92 | 2.6 | 7.0 | 0.00 | 0.00 | 0.00 | 28 | 1013.4 |
| 20260504174324 | 75 | 66 | 6.1 | 7.8 | 0.00 | 0.00 | 0.00 | 27 | 1013.6 |
| 20260504173820 | 75 | 303 | 3.5 | 7.8 | 0.00 | 0.00 | 0.00 | 29 | 1013.6 |
| 20260504173317 | 74 | 61 | 2.6 | 3.5 | 0.00 | 0.00 | 0.00 | 27 | 1013.8 |
| 20260504172814 | 74 | 106 | 3.5 | 5.2 | 0.00 | 0.00 | 0.00 | 30 | 1014.0 |
| 20260504172311 | 74 | 41 | 2.6 | 7.0 | 0.00 | 0.00 | 0.00 | 28 | 1014.0 |
| 20260504171807 | 74 | 307 | 1.7 | 2.6 | 0.00 | 0.00 | 0.00 | 30 | 1014.1 |
| 20260504171304 | 74 | 16 | 3.5 | 7.0 | 0.00 | 0.00 | 0.00 | 27 | 1014.2 |
| 20260504170801 | 74 | 210 | 1.7 | 2.6 | 0.00 | 0.00 | 0.00 | 31 | 1014.2 |
| 20260504170258 | 74 | 277 | 3.5 | 5.2 | 0.00 | 0.00 | 0.00 | 27 | 1014.3 |
| 20260504160216 | 71 | 219 | 0.0 | 7.0 | 0.00 | 0.00 | 0.00 | 30 | 1015.3 |
| 20260504151150 | 69 | 11 | 4.3 | 5.2 | 0.00 | 0.00 | 0.00 | 34 | 1015.7 |
| 20260504150647 | 69 | 74 | 3.5 | 7.8 | 0.00 | 0.00 | 0.00 | 36 | 1015.7 |
| 20260504150144 | 69 | 30 | 1.7 | 6.1 | 0.00 | 0.00 | 0.00 | 38 | 1015.6 |
| 20260504141113 | 65 | 26 | 0.9 | 1.7 | 0.00 | 0.00 | 0.00 | 47 | 1015.8 |
| 20260504140609 | 65 | 58 | 1.7 | 2.6 | 0.00 | 0.00 | 0.00 | 45 | 1015.9 |
| 20260504140105 | 64 | 222 | 0.0 | 0.9 | 0.00 | 0.00 | 0.00 | 48 | 1015.6 |
| 20260504130533 | 58 | 202 | 0.9 | 1.7 | 0.00 | 0.00 | 0.00 | 61 | 1016.1 |
| 20260504110421 | 39 | 232 | 0.0 | 0.0 | 0.00 | 0.00 | 0.00 | 92 | 1016.6 |
| 20260504100338 | 36 | 233 | 0.0 | 0.0 | 0.00 | 0.00 | 0.00 | 92 | 1016.3 |
| 20260504081731 | 38 | 273 | 0.0 | 0.0 | 0.00 | 0.00 | 0.00 | 90 | 1016.0 |
| 20260504081227 | 38 | 273 | 0.0 | 0.0 | 0.00 | 0.00 | 0.00 | 90 | 1016.0 |
| 20260504080724 | 38 | 273 | 0.0 | 0.0 | 0.00 | 0.00 | 0.00 | 90 | 1016.1 |
| 20260504080221 | 38 | 273 | 0.0 | 0.0 | 0.00 | 0.00 | 0.00 | 90 | 1016.3 |
| 20260504070148 | 39 | 273 | 0.0 | 0.0 | 0.00 | 0.00 | 0.00 | 88 | 1016.2 |
| 20260504060109 | 39 | 302 | 0.0 | 0.0 | 0.00 | 0.00 | 0.00 | 86 | 1016.1 |
| 20260504050537 | 42 | 302 | 0.0 | 0.0 | 0.00 | 0.00 | 0.00 | 83 | 1016.1 |
| 20260504045531 | 41 | 302 | 0.0 | 0.0 | 0.00 | 0.00 | 0.00 | 83 | 1016.2 |
| 20260504045026 | 41 | 302 | 0.0 | 0.0 | 0.00 | 0.00 | 0.00 | 82 | 1015.9 |
| 20260504044524 | 41 | 302 | 0.0 | 0.0 | 0.00 | 0.00 | 0.00 | 81 | 1015.9 |
| 20260504044021 | 42 | 302 | 0.0 | 0.0 | 0.00 | 0.00 | 0.00 | 82 | 1015.9 |
| 20260504043518 | 42 | 302 | 0.0 | 0.0 | 0.00 | 0.00 | 0.00 | 80 | 1015.9 |
| 20260504043015 | 42 | 302 | 0.0 | 0.0 | 0.00 | 0.00 | 0.00 | 82 | 1016.1 |
| 20260504042512 | 42 | 302 | 0.0 | 0.0 | 0.00 | 0.00 | 0.00 | 82 | 1016.0 |
| 20260504042009 | 42 | 302 | 0.0 | 0.0 | 0.00 | 0.00 | 0.00 | 82 | 1016.0 |
| 20260504041504 | 42 | 302 | 0.0 | 0.0 | 0.00 | 0.00 | 0.00 | 82 | 1015.7 |
| 20260504041001 | 42 | 302 | 0.0 | 0.0 | 0.00 | 0.00 | 0.00 | 81 | 1016.0 |
| 20260504040458 | 42 | 302 | 0.0 | 0.0 | 0.00 | 0.00 | 0.00 | 81 | 1015.7 |
| 20260504035954 | 42 | 302 | 0.0 | 0.0 | 0.00 | 0.00 | 0.00 | 80 | 1016.0 |
| 20260504035452 | 42 | 302 | 0.0 | 0.0 | 0.00 | 0.00 | 0.00 | 80 | 1016.0 |